Flag for Germany Weather past 2 weeks in Göttingen, Lower Saxony, Germany

Now
50 °F

Partly sunny.


Feels Like: 46 °F
Forecast: 41 / 68 °F
Wind: 12 mph from Southwest

Location: Kassel / Calden

Current Time: May 30, 2015 at 5:42:24 PM

Latest Report: May 30, 2015 at 5:20 PM


Visibility: N/A

Pressure: 30.01 "Hg

Humidity: 71%

Dew point: 41 °F

Location of GöttingenLocation

Historic Weather in Göttingen — Graph

°F

Göttingen temperature yesterday

Maximum temperature yesterday: 63 °F (at 2:50 PM)
Minimum temperature yesterday: 46 °F (at 6:20 AM)
Average temperature yesterday: 56 °F

Past Weeks' High & Low Weather Summary

 TemperatureHumidityPressure
High68 °F (May 18, 3:50 PM)100% (May 25, 7:20 AM)30.33 "Hg (May 25, 7:20 AM)
Low37 °F (May 16, 5:50 AM)34% (May 22, 3:20 PM)29.65 "Hg (May 18, 7:20 PM)
Average55 °F65%30.03 "Hg
* Reported May 15 4:20 PM — May 30 4:20 PM, Göttingen, Weather by CustomWeather, © 2015

Note: Actual official high and low records may vary slightly from our data, if they occured in-between our weather recording intervals... More about our weather records

Advertising

Göttingen weather history for previous 24 hours

 ConditionsComfort  
Time TempWeatherWind HumidityBarometerVisibility
4:20 PM
Sat, May 30
48 °FBroken clouds.12 mph76%29.98 "HgN/A
3:50 PM46 °FLight rain. Broken clouds.23 mph82%29.98 "HgN/A
3:20 PM50 °FPartly sunny.12 mph71%29.98 "HgN/A
2:50 PM48 °FLight rain. Broken clouds.21 mph76%29.95 "HgN/A
2:20 PM50 °FBroken clouds.21 mph82%29.95 "HgN/A
1:50 PM48 °FLight rain. Partly sunny.30 mph71%29.92 "HgN/A
1:20 PM54 °FScattered showers. Partly sunny.14 mph63%29.89 "HgN/A
12:50 PM55 °FScattered showers. Scattered clouds.14 mph51%29.89 "HgN/A
12:20 PM54 °FLight rain. Partly sunny.15 mph54%29.89 "HgN/A
11:50 AM55 °FPartly sunny.12 mph55%29.89 "HgN/A
11:20 AM52 °FPartly sunny.15 mph67%29.89 "HgN/A
10:50 AM52 °FPartly sunny.14 mph62%29.89 "HgN/A
10:20 AM52 °FScattered showers. Broken clouds.15 mph67%29.89 "HgN/A
9:50 AM52 °FPartly sunny.15 mph67%29.86 "HgN/A
9:20 AM52 °FBroken clouds.8 mph77%29.86 "HgN/A
8:50 AM48 °FBroken clouds.6 mph87%29.86 "HgN/A
8:20 AM48 °FScattered showers. Partly sunny.6 mph87%29.86 "HgN/A
7:50 AM48 °FBroken clouds.7 mph87%29.86 "HgN/A
7:20 AM48 °FBroken clouds.6 mph82%29.83 "HgN/A
6:50 AM46 °FScattered showers. Broken clouds.7 mph87%29.83 "HgN/A
6:20 AM46 °FBroken clouds.8 mph87%29.83 "HgN/A
5:50 AM46 °FPartly cloudy.7 mph87%29.80 "HgN/A
9:50 PM
Fri, May 29
52 °FSunny.9 mph94%29.77 "Hg10 mi
9:20 PM54 °FSunny.9 mph88%29.77 "Hg10 mi
8:50 PM54 °FPartly sunny.10 mph88%29.74 "HgN/A
8:20 PM55 °FScattered clouds.9 mph82%29.77 "HgN/A
7:50 PM54 °FPartly sunny.8 mph88%29.74 "HgN/A
7:20 PM54 °FLight rain. Broken clouds.9 mph88%29.77 "HgN/A
6:50 PM55 °FLight rain. Broken clouds.10 mph82%29.77 "HgN/A
6:20 PM55 °FLight rain. Broken clouds.13 mph72%29.77 "HgN/A
5:50 PM57 °FPartly sunny.10 mph67%29.77 "HgN/A
5:20 PM59 °FPartly sunny.16 mph59%29.77 "HgN/A
Weather by CustomWeather, © 2015

See weather overviewHow to use our weather pages